This is the latest recevied weather packets stored in our database for station/object K0QED. If no packets are shown the sender has not sent any weather packets the latest 10 day(s).
| Time | Temp. | Humidity | Pressure | Rain* | Wind** | Luminosity | Snow |
|---|---|---|---|---|---|---|---|
| 1788133204 | 17.78° C | 65% | 1026.5 hPa | 0 mm | - | 129 W/m² | - |
| 1788132899 | 17.22° C | 66% | 1026.6 hPa | 0 mm | - | 125 W/m² | - |
| 1788132595 | 17.22° C | 66% | 1026.2 hPa | 0 mm | - | 92 W/m² | - |
| 1788132291 | 17.22° C | 66% | 1026.5 hPa | 0 mm | - | 66 W/m² | - |
| 1788131987 | 17.22° C | 65% | 1026.2 hPa | 0 mm | - | 58 W/m² | - |
| 1788131682 | 17.78° C | 64% | 1026.4 hPa | 0 mm | - | 100 W/m² | - |
| 1788131381 | 17.22° C | 64% | 1026 hPa | 0 mm | - | 196 W/m² | - |
| 1788131077 | 17.22° C | 65% | 1026.4 hPa | 0 mm | - | 147 W/m² | - |
| 1788130776 | 17.22° C | 65% | 1026.1 hPa | 0 mm | - | 123 W/m² | - |
| 1788130472 | 17.22° C | 65% | 1026.4 hPa | 0 mm | - | 161 W/m² | - |
| 1788130166 | 17.78° C | 63% | 1026.4 hPa | 0 mm | - | 74 W/m² | - |
| 1788129865 | 18.33° C | 61% | 1026.4 hPa | 0 mm | - | 77 W/m² | - |
| 1788129562 | 20° C | 56% | 1026.2 hPa | 0 mm | - | 488 W/m² | - |
| 1788129258 | 21.67° C | 48% | 1025.6 hPa | 0 mm | - | 196 W/m² | - |
| 1788128957 | 21.67° C | 46% | 1025.6 hPa | 0 mm | - | 110 W/m² | - |
| 1788128652 | 22.22° C | 43% | 1026 hPa | 0 mm | - | 25 W/m² | - |
| 1788128348 | 22.78° C | 46% | 1026.1 hPa | 0 mm | - | 17 W/m² | - |
| 1788128044 | 22.78° C | 44% | 1026 hPa | 0 mm | - | 14 W/m² | - |
| 1788127740 | 22.78° C | 44% | 1025.5 hPa | 0 mm | - | 14 W/m² | - |
| 1788127439 | 22.78° C | 43% | 1025.2 hPa | 0 mm | - | 15 W/m² | - |
| 1788127137 | 23.33° C | 42% | 1025.6 hPa | 0 mm | - | 19 W/m² | - |
| 1788126837 | 23.89° C | 41% | 1025.4 hPa | 0 mm | - | 26 W/m² | - |
| 1788126532 | 23.89° C | 41% | 1025.1 hPa | 0 mm | - | 41 W/m² | - |
| 1788126227 | 23.89° C | 40% | 1025.1 hPa | 0 mm | - | 44 W/m² | - |
| 1788125921 | 23.89° C | 40% | 1025.1 hPa | 0 mm | - | 53 W/m² | - |
* Rain latest hour (hover to see other rain measurements)
** Current wind speed in m/s (hover to see current wind gust speed)